Theta_e
326 317 314 323 314 312 309 303 295 293 286 286 285 286 288 293 292 294 294 294 295 298 297 302 299 300 299 298 299 302 307 303 299 293 290 300 322 336 335 336 339 341 342 343 341 342 342 347 349 349 349 349 349 349 349 348 347 346 345 346 345 344 343 343 343 342 342 342 341 341 340 345 347 347 346 344 343 341 339 338 338 338 337 339 339 340 339 340 341 343 343 342 341 340 339 338 337
320 315 315 319 316 310 306 298 290 285 284 284 287 285 289 291 294 292 292 291 294 300 303 308 310 312 312 312 312 307 303 318 312 311 322 331 334 334 336 338 340 340 342 342 341 340 340 344 348 349 349 349 349 348 348 347 347 346 346 345 345 345 343 343 343 343 342 341 340 339 343 346 346 346 346 346 345 343 339 338 337 337 338 339 339 339 340 340 341 342 341 340 338 337 337 337 337
317 315 315 312 311 305 302 298 294 282 285 283 283 285 291 292 291 291 291 295 297 303 305 304 302 302 305 305 303 301 296 323 325 325 327 334 331 333 337 338 339 341 342 343 341 339 339 343 346 349 349 349 349 348 347 347 347 346 345 345 344 343 343 343 343 342 342 341 340 340 339 342 346 346 345 345 344 343 340 338 337 338 338 340 340 339 339 340 340 341 341 342 341 339 339 341 341
315 317 313 309 308 301 297 290 287 286 286 281 283 289 292 290 291 291 293 295 299 301 300 301 300 300 306 305 307 312 314 318 323 327 327 330 330 337 338 338 340 342 343 343 342 338 340 343 345 349 349 349 349 348 347 347 347 346 345 344 344 343 343 342 342 342 341 339 339 339 339 339 346 345 344 344 344 341 338 337 336 336 336 338 338 339 340 340 340 340 340 340 341 341 341 341 340
315 319 311 307 304 302 293 290 284 281 283 282 285 286 290 291 294 293 297 296 297 296 298 299 304 307 308 309 307 305 304 317 323 327 327 328 334 338 338 338 340 341 341 343 342 338 339 342 345 346 349 349 349 348 347 347 346 346 345 344 343 343 342 342 342 341 341 341 340 339 343 346 345 344 344 343 343 341 338 337 336 337 337 337 338 339 339 340 340 341 341 341 341 341 339 339 339
310 310 312 308 304 303 293 290 288 285 283 285 286 290 291 294 294 293 297 297 297 295 296 297 303 305 308 310 310 307 312 314 321 323 325 327 336 338 338 338 340 340 341 343 341 339 339 341 345 346 349 349 349 348 347 347 347 346 345 344 343 342 342 342 342 342 341 340 339 341 342 343 345 344 344 344 342 340 337 336 336 336 337 337 337 339 340 339 340 341 342 342 342 341 340 340 340
312 307 304 303 302 298 293 284 285 284 292 288 288 292 295 294 294 294 296 297 298 298 296 303 304 304 304 306 311 315 316 321 322 323 326 330 336 338 338 338 339 339 341 342 341 339 339 341 346 348 348 348 349 348 347 347 347 346 345 344 344 342 342 341 341 341 341 341 339 339 340 342 343 343 343 343 342 341 338 336 336 335 336 336 336 338 338 338 340 340 341 341 341 341 340 340 340
311 308 302 296 293 289 286 284 287 284 291 290 291 296 295 296 293 294 294 295 296 298 300 302 300 298 300 308 305 314 318 320 323 326 330 334 336 336 337 338 338 339 341 342 342 340 343 341 346 347 348 348 348 348 348 347 346 346 345 344 343 343 342 342 342 341 341 341 339 338 339 341 342 343 343 343 342 340 338 335 334 337 336 336 337 337 337 339 340 339 340 340 340 339 339 339 339
306 305 301 296 291 287 284 286 288 287 289 292 295 296 302 295 293 294 293 293 295 295 298 300 295 297 297 307 305 311 315 321 327 328 332 332 335 335 337 338 338 339 340 341 342 341 340 340 344 347 346 348 348 348 348 347 346 346 346 344 344 343 342 341 341 341 340 340 339 338 339 339 340 342 341 341 341 341 339 337 336 336 336 336 336 337 337 338 339 340 339 339 338 337 337 337 337
303 302 295 293 289 287 282 286 287 290 291 294 294 296 296 294 293 293 292 294 296 294 297 295 296 297 300 304 307 314 319 321 327 329 331 333 334 335 336 338 339 339 340 341 342 342 340 343 340 342 344 347 348 348 348 347 347 346 346 344 343 342 341 341 341 340 340 340 339 337 337 337 339 339 340 340 340 339 337 335 334 334 334 335 335 336 336 336 337 338 338 338 338 337 336 336 335
300 297 296 292 285 284 285 285 283 288 293 291 294 293 296 293 293 292 294 294 295 296 296 299 302 302 304 304 305 311 316 321 327 328 329 332 333 334 336 338 339 340 340 341 342 342 341 341 341 339 342 343 345 347 347 347 346 346 346 344 343 342 342 342 341 340 340 340 339 337 337 336 336 338 339 339 338 337 336 334 334 334 334 334 334 335 335 336 336 338 337 337 337 336 335 336 335
297 296 293 285 285 285 283 285 288 289 290 291 295 296 293 295 293 294 294 295 296 295 296 299 300 303 301 300 302 309 316 323 326 330 329 330 333 334 336 338 339 339 341 342 342 343 341 339 339 341 338 338 341 344 344 345 346 346 346 345 343 342 342 342 341 340 339 339 339 338 337 336 336 335 337 336 336 335 335 334 334 334 333 335 334 334 335 335 336 337 337 336 336 336 335 335 335
298 294 289 288 289 286 285 286 287 289 288 290 293 296 293 293 294 294 293 294 294 295 297 295 304 301 298 300 302 310 318 323 324 327 328 330 330 333 336 338 339 339 341 342 342 342 341 339 339 339 337 334 335 337 340 341 343 345 345 345 343 342 341 341 341 341 340 339 338 338 337 338 338 336 336 336 335 335 335 333 333 333 333 333 333 334 335 335 336 336 336 335 335 335 334 334 333
298 295 291 291 285 285 285 286 284 288 287 290 290 293 294 294 294 294 295 295 294 293 296 296 304 302 301 302 306 314 320 322 323 324 326 329 330 334 335 337 338 339 340 341 341 341 341 339 339 339 337 336 336 335 334 338 341 343 343 343 343 341 341 341 341 340 340 339 339 338 338 338 337 336 336 335 335 334 334 334 333 333 333 333 333 334 334 335 335 335 334 334 334 334 333 332 332
306 296 289 286 284 286 285 286 289 285 288 288 294 293 293 295 293 293 297 293 295 293 299 301 301 300 295 301 298 314 322 323 322 323 327 329 331 333 334 337 338 338 339 340 341 340 340 339 339 338 337 336 336 336 336 337 335 339 340 340 340 340 340 339 340 338 338 338 337 336 335 334 333 334 334 335 334 333 332 332 333 333 333 333 332 333 333 334 334 333 333 333 332 332 331 331 329
300 293 290 290 287 286 288 288 284 285 290 290 294 291 293 294 292 295 296 295 297 297 297 299 299 298 298 301 300 311 322 323 322 325 328 328 328 330 334 336 337 337 337 338 339 340 340 339 338 337 337 336 335 336 335 336 333 333 336 337 337 338 337 337 336 334 332 332 331 330 327 327 326 326 326 327 330 333 331 329 332 332 332 331 332 332 332 333 333 332 331 331 331 330 329 328 327
297 295 293 283 288 287 289 287 287 287 288 290 292 292 293 293 294 295 295 297 298 296 301 301 300 308 301 303 308 309 322 322 323 325 327 328 330 330 332 334 334 335 336 337 338 339 339 338 337 337 337 336 336 336 337 336 335 330 331 331 333 335 334 333 333 327 324 323 324 322 323 324 324 324 323 322 321 324 324 326 330 332 331 330 330 330 331 331 330 330 329 328 326 324 321 322 322
298 291 286 287 284 286 288 288 289 289 292 292 292 292 292 292 294 298 297 296 293 294 297 296 306 310 312 312 310 316 321 323 324 326 326 327 329 328 330 331 332 331 333 334 336 338 338 338 337 337 336 336 336 336 337 338 335 333 335 334 334 332 328 326 326 327 327 323 321 323 323 323 322 321 321 324 322 324 324 324 327 331 330 331 330 330 330 329 329 329 327 326 323 320 315 311 312
290 287 286 289 285 291 292 289 290 292 293 293 293 290 293 293 294 296 294 293 295 296 296 296 304 307 312 313 316 320 321 321 323 325 326 327 328 328 329 330 331 332 332 333 334 337 337 337 337 337 337 337 336 335 337 337 336 336 334 333 333 328 327 326 326 325 323 323 322 322 321 321 320 318 319 321 322 321 323 323 327 328 330 329 328 328 328 328 327 327 324 322 319 315 309 308 308
293 292 289 286 290 291 290 291 291 292 292 293 292 292 292 293 294 295 295 291 292 293 294 296 300 301 307 312 315 319 321 320 322 323 325 326 327 329 330 330 331 332 333 333 333 336 337 336 337 338 337 337 336 335 336 336 337 337 336 335 335 331 327 326 324 323 323 322 322 321 321 320 319 319 321 322 321 322 322 322 324 325 326 322 323 324 325 324 323 321 319 316 312 308 307 307 307
294 290 284 292 290 292 294 290 291 291 291 292 291 290 292 293 293 294 290 293 292 292 292 297 298 301 310 313 315 318 319 319 320 320 324 326 328 331 332 332 332 334 335 335 334 334 336 337 336 337 338 338 336 336 335 335 336 336 337 337 336 333 328 325 324 323 322 322 321 321 320 319 318 318 317 318 319 320 320 321 322 320 314 310 312 308 308 308 307 306 306 307 305 306 306 305 306
290 293 290 291 290 293 294 291 292 290 289 292 289 293 292 293 294 290 294 291 291 295 297 296 298 307 313 314 316 317 318 319 320 320 321 324 327 329 331 332 332 333 334 334 334 334 335 336 337 337 338 338 337 336 335 334 335 335 336 336 334 333 329 325 323 322 321 321 321 320 319 318 317 317 317 316 317 318 319 318 318 314 310 306 306 304 304 304 304 304 304 304 303 304 304 304 304
294 291 290 288 289 294 292 292 291 289 291 290 290 292 293 293 293 289 292 293 292 292 293 297 296 313 316 317 317 316 317 318 319 320 321 322 325 328 330 332 332 332 333 334 335 335 336 336 336 337 336 337 337 337 336 334 335 336 337 336 334 333 332 327 323 322 321 321 321 320 319 318 317 316 316 316 315 317 317 316 315 312 308 304 303 303 302 303 303 303 303 303 303 303 303 303 303
288 292 290 293 290 293 291 293 288 288 291 290 291 292 293 291 294 291 290 292 291 291 291 292 297 313 316 316 316 317 318 318 319 321 322 323 325 328 330 330 332 332 332 334 335 335 334 336 337 336 336 337 337 338 337 335 336 336 337 334 334 332 332 329 326 322 321 321 320 320 319 318 317 316 315 315 314 314 315 314 312 309 306 304 302 302 302 301 302 302 302 302 303 303 303 302 302
292 292 291 292 291 291 289 289 288 290 290 291 291 293 293 290 293 291 291 294 294 291 293 294 308 313 313 315 315 316 316 316 317 319 319 321 322 323 323 327 329 331 330 332 334 335 335 336 337 337 337 337 338 338 336 335 336 336 336 335 335 330 334 332 328 324 321 320 321 319 318 318 317 316 315 314 313 314 313 312 310 307 305 303 301 301 302 301 301 302 302 302 302 302 302 301 301
290 293 290 291 292 291 290 292 289 289 293 291 293 292 291 290 291 292 294 293 292 294 297 303 310 311 312 314 315 315 315 316 316 316 318 319 314 318 322 324 326 328 331 332 333 334 335 335 336 337 337 338 338 338 337 336 336 336 336 335 336 332 335 334 331 325 323 321 321 319 318 318 317 316 315 313 313 312 311 310 309 306 304 302 301 301 301 301 301 301 301 301 301 300 300 300 300
289 290 290 291 291 292 291 293 291 290 292 290 292 291 292 291 292 289 290 291 294 296 296 301 309 310 311 312 314 315 315 315 316 318 312 313 314 316 320 319 322 327 330 330 332 333 333 334 335 336 337 336 338 337 338 337 336 336 335 336 336 334 335 335 332 328 324 323 322 319 318 317 317 316 315 313 312 312 311 310 308 305 304 301 301 300 300 301 300 301 301 300 299 299 299 298 298
291 291 290 291 288 293 291 290 292 291 294 288 292 292 291 292 292 290 294 291 293 296 295 299 301 307 310 311 312 313 314 316 315 311 315 314 316 317 317 319 320 322 325 328 331 332 332 332 334 335 337 336 336 337 337 337 337 336 335 336 335 335 335 335 334 331 325 325 325 320 318 317 317 317 315 313 312 312 312 311 308 305 303 302 300 300 299 299 299 298 299 299 299 298 297 297 297
291 293 291 289 286 292 291 292 292 291 293 293 292 292 290 291 290 291 292 291 294 295 294 295 297 299 303 307 309 309 313 313 310 312 315 316 318 318 318 320 320 320 324 326 328 328 330 331 332 333 335 335 335 336 337 337 337 336 335 335 335 334 335 335 334 333 329 326 327 323 319 318 317 318 317 315 313 313 312 312 309 307 306 304 302 300 299 298 298 298 297 297 297 296 295 295 295
292 289 287 288 284 285 291 290 290 293 293 291 291 284 283 286 294 293 291 290 292 294 293 294 295 295 296 299 304 307 308 306 308 312 315 315 316 316 317 318 319 320 321 322 322 324 328 329 329 331 332 333 333 335 336 336 336 336 335 335 334 334 334 334 333 334 332 328 328 325 322 320 319 319 318 316 314 313 311 311 309 307 307 304 302 300 299 299 298 298 296 297 297 296 295 294 294
290 290 285 284 285 285 288 290 290 292 292 290 290 283 282 284 283 286 287 290 292 292 293 293 293 293 293 294 297 302 305 307 309 311 312 314 314 315 316 317 317 319 318 318 321 323 324 326 328 329 328 330 329 332 333 335 334 334 333 334 335 334 334 334 334 333 333 332 330 329 325 322 320 319 318 317 314 313 310 310 309 308 308 304 301 300 299 298 299 298 298 297 297 296 295 294 293
283 286 283 280 283 282 286 289 289 290 293 289 289 284 285 287 288 287 289 290 290 292 292 291 291 293 293 292 293 296 300 302 305 306 308 311 312 313 314 315 317 318 319 320 320 320 323 324 325 327 327 327 328 329 331 333 333 333 332 328 333 334 333 333 333 333 333 333 332 331 328 325 322 321 319 317 315 313 310 308 308 308 308 304 301 300 300 298 298 298 298 298 296 294 293 292 293
282 283 280 285 282 282 286 292 288 291 292 291 289 284 283 289 289 292 289 289 289 289 289 289 291 292 293 293 294 294 295 296 297 300 304 306 309 312 312 313 315 317 319 319 319 319 321 323 323 325 325 326 327 326 327 328 330 331 331 330 332 332 333 332 333 333 333 333 333 332 331 327 324 323 320 318 316 314 311 308 307 308 307 304 301 300 299 299 298 298 297 297 297 294 293 292 292
287 282 282 280 283 283 284 286 290 289 291 291 288 289 285 288 287 287 288 291 290 290 290 289 290 292 293 293 293 294 295 296 297 298 299 302 305 309 312 312 313 315 317 318 320 320 321 322 323 324 325 325 326 326 325 326 327 329 329 329 327 331 332 332 332 332 332 332 332 332 332 330 326 325 322 319 317 315 312 309 307 308 307 304 301 300 299 299 298 297 296 296 296 295 294 292 290
282 284 283 284 282 282 283 287 290 291 289 290 288 288 289 292 292 292 292 291 292 291 292 292 291 291 292 293 293 294 294 295 297 299 298 298 300 304 309 311 311 313 316 317 318 319 319 319 321 321 322 323 324 324 322 321 322 323 324 325 326 328 330 331 331 331 331 331 331 332 331 331 327 327 325 322 319 318 314 310 309 309 308 304 301 299 298 297 297 296 296 294 295 294 293 292 290
285 286 282 280 284 284 285 285 285 290 289 289 286 288 289 290 290 292 293 290 290 291 290 290 291 292 292 292 293 294 295 295 298 297 297 297 298 300 304 308 310 311 313 315 316 317 318 318 319 320 321 322 322 321 320 319 318 320 321 318 319 323 326 326 327 330 330 330 329 330 331 332 329 328 327 325 321 318 316 311 309 309 308 305 301 298 297 297 296 295 295 294 293 293 293 292 291
285 283 281 282 282 283 284 286 290 287 289 287 287 286 286 289 291 293 293 289 289 288 290 292 292 293 293 293 294 295 295 296 297 296 297 298 298 298 300 304 308 308 310 312 314 315 317 319 317 318 320 320 321 320 319 320 319 318 318 320 321 321 321 322 323 325 327 328 328 329 330 331 331 329 328 327 324 319 318 314 310 308 308 305 302 300 298 297 297 296 295 294 293 291 290 291 291
287 283 283 283 283 286 287 289 288 287 289 283 282 284 286 287 289 290 290 288 289 290 290 291 292 292 293 293 294 295 296 294 294 295 295 294 296 297 297 302 304 307 309 312 314 316 317 318 317 318 317 318 320 321 320 320 321 322 322 320 318 313 315 317 320 320 323 323 325 326 327 329 330 329 327 328 325 323 319 316 312 309 308 305 303 301 298 297 296 295 294 293 293 291 289 290 290
282 284 280 283 284 282 286 287 286 287 288 284 281 285 289 290 291 291 290 292 292 291 291 293 292 292 292 292 293 294 294 295 294 294 293 293 294 295 296 300 304 308 309 310 313 314 314 315 317 316 316 317 318 319 319 319 318 316 317 313 316 306 306 312 316 316 317 319 319 322 324 326 327 328 328 326 327 324 321 317 313 311 308 305 303 302 299 297 296 295 294 294 291 291 290 291 290
282 282 284 282 281 285 284 284 286 287 286 286 284 286 289 289 288 289 292 292 290 289 289 290 291 292 292 293 293 294 294 295 295 295 295 292 292 293 294 298 302 305 306 307 310 313 314 315 315 315 315 315 316 316 315 316 314 308 304 304 307 309 307 304 306 306 312 313 316 316 318 320 322 324 325 326 325 324 321 317 314 311 308 307 305 301 298 297 296 295 294 294 292 289 289 289 290
282 279 280 282 286 285 283 286 286 282 286 283 283 284 285 280 281 282 283 283 286 288 289 290 291 291 292 292 291 292 293 294 294 294 295 293 292 294 296 298 298 302 305 307 309 313 315 315 315 315 314 313 314 312 312 310 307 304 302 302 302 304 305 307 308 308 308 311 314 314 315 315 316 319 322 324 322 323 321 318 315 312 309 308 306 303 300 298 297 296 295 293 292 291 288 289 289
283 282 283 284 282 285 286 282 285 277 281 282 283 279 274 276 279 281 284 284 288 285 286 288 289 290 290 291 292 292 292 291 293 294 295 293 291 292 294 296 298 301 303 306 308 311 312 312 311 311 311 310 311 310 311 310 310 310 306 308 306 302 307 304 309 312 308 309 312 312 313 313 314 314 314 317 322 321 320 318 316 313 310 308 307 305 303 300 298 297 295 295 293 294 291 288 288
283 286 284 284 284 284 283 284 281 279 280 283 282 281 277 279 283 287 286 285 287 288 286 289 290 289 286 289 291 290 291 292 291 292 292 292 293 293 294 296 298 299 302 301 302 306 308 308 309 310 311 309 309 308 308 309 309 309 309 312 312 311 311 308 303 302 307 305 310 311 313 312 311 312 313 313 314 316 319 319 317 314 312 310 307 306 303 301 299 297 296 296 295 295 293 289 288
284 283 283 285 285 285 283 282 283 279 279 281 278 275 277 280 284 282 282 282 285 286 289 290 290 289 288 287 288 288 290 290 291 291 291 292 293 294 296 297 297 299 299 300 302 303 307 308 308 308 308 307 306 307 307 309 310 308 307 308 309 310 310 309 304 302 301 303 305 306 308 310 310 310 311 311 313 314 315 316 316 314 312 310 307 307 305 303 301 299 297 297 296 295 293 292 290
283 284 285 284 285 282 281 280 279 280 280 280 277 282 280 277 281 282 281 284 284 286 288 288 288 288 287 287 287 287 287 288 289 291 292 293 294 295 295 296 296 297 298 300 302 302 303 303 304 304 305 304 304 305 306 306 308 308 308 308 307 305 305 302 298 298 300 299 302 300 303 306 308 309 310 311 311 312 313 315 315 314 312 311 306 307 306 303 301 299 297 297 296 295 295 294 293
287 284 284 283 282 281 279 278 281 276 278 275 278 281 276 277 278 280 278 283 283 285 286 286 287 288 288 288 289 289 287 287 289 291 291 293 293 293 293 294 295 296 296 297 299 299 300 299 302 302 303 302 302 303 305 305 306 305 306 305 306 304 299 296 297 298 298 296 300 300 301 302 304 305 307 308 309 310 311 312 314 314 313 311 307 308 307 304 302 300 299 298 297 296 296 294 294
288 286 287 283 280 280 277 277 275 277 272 274 277 279 279 276 279 280 283 283 283 283 283 284 288 290 291 289 289 290 290 290 290 290 290 290 290 290 291 294 295 295 295 296 297 297 298 300 299 301 301 300 300 303 303 304 304 304 306 305 305 304 301 300 298 296 295 295 299 299 299 301 300 302 302 303 306 308 309 309 312 314 313 310 308 308 307 306 304 302 300 298 297 297 296 295 294
287 284 279 283 281 278 277 271 274 273 268 272 276 277 278 273 275 281 281 283 282 286 287 286 288 289 291 291 292 290 288 288 289 289 291 289 292 293 293 294 294 294 295 296 296 297 297 297 297 299 298 299 299 301 301 303 303 303 303 304 304 304 302 301 300 300 298 299 299 300 298 297 298 299 299 299 302 304 306 308 308 311 312 312 310 309 309 308 305 303 301 299 298 298 297 295 294
284 282 282 276 271 269 272 268 273 270 270 278 277 278 279 279 282 286 285 286 286 284 287 286 289 289 289 291 292 291 289 288 289 289 289 290 289 290 292 293 293 292 294 295 296 295 295 295 297 299 299 298 299 299 301 301 301 302 303 303 302 302 301 301 301 300 299 299 299 298 297 298 297 299 300 301 302 304 305 306 308 309 311 312 311 310 309 308 306 304 302 300 299 298 298 296 295
283 284 277 273 270 269 265 259 262 266 273 276 279 280 278 278 281 288 290 290 287 285 285 286 287 288 289 290 292 291 291 289 290 288 288 289 290 290 290 291 292 293 294 294 294 294 294 296 296 298 300 297 297 298 299 300 300 301 301 302 302 301 301 301 301 301 299 299 298 299 298 299 299 300 301 301 302 302 303 305 306 308 310 311 310 310 309 308 306 304 302 300 299 299 299 297 296
285 281 283 279 268 266 265 263 271 271 272 275 275 275 274 276 284 286 286 288 285 285 286 285 286 287 287 287 288 288 290 290 288 288 290 292 293 292 292 291 291 292 292 293 292 294 294 296 296 297 298 297 297 298 298 299 300 299 300 301 301 300 301 300 301 300 299 298 297 298 299 298 299 299 300 300 299 300 301 303 304 305 307 308 308 308 308 307 305 304 302 301 300 300 299 298 297
282 279 280 278 276 275 273 268 266 266 269 270 273 276 277 281 283 285 285 285 287 286 285 284 286 286 284 286 288 288 290 291 289 289 291 292 292 292 292 291 291 290 291 291 293 294 295 297 296 297 299 298 297 297 298 299 299 299 298 299 300 299 299 299 298 297 298 298 298 299 299 298 298 298 298 298 297 298 299 301 302 303 305 307 307 307 307 306 305 303 302 301 300 300 299 298 297
283 283 279 280 280 279 270 270 271 270 269 274 269 277 280 280 283 288 288 286 288 285 285 285 286 285 283 287 289 287 288 290 290 289 289 292 292 291 292 291 290 290 291 293 295 295 296 296 296 297 297 295 296 297 298 297 298 297 298 298 298 298 298 298 299 298 298 298 298 298 299 299 298 297 297 297 298 298 299 300 301 302 303 305 306 306 306 306 305 303 301 300 300 299 298 298 297
284 279 281 281 282 279 277 273 265 262 269 272 271 275 276 276 278 279 283 286 286 285 285 284 284 284 284 287 287 286 287 289 288 288 289 291 292 293 293 291 290 291 292 292 294 295 295 296 296 297 295 297 296 296 297 297 297 297 297 297 297 298 299 298 298 298 297 297 297 297 297 297 297 298 298 298 299 299 300 299 300 301 302 303 304 304 305 305 304 302 301 301 300 299 298 297 297
283 280 284 285 278 277 276 271 270 266 265 267 271 273 274 278 281 280 282 283 285 288 287 284 286 286 287 289 289 287 284 285 287 287 288 290 291 293 293 293 291 290 291 291 292 294 295 295 295 296 297 297 297 297 296 295 296 297 298 297 297 297 297 297 297 297 296 297 297 297 297 298 298 297 297 297 297 298 298 298 298 298 298 300 301 302 302 302 302 301 300 300 298 298 296 295 295
287 286 285 284 280 275 273 276 270 272 267 263 271 268 280 279 280 283 285 283 283 286 285 284 285 286 287 288 288 288 287 287 287 288 289 290 291 291 291 292 293 292 291 292 293 293 294 296 295 295 294 294 294 295 295 296 296 296 296 295 295 296 296 297 297 296 296 297 297 297 297 297 298 297 297 297 297 296 295 296 296 296 297 298 298 299 299 300 300 300 298 297 296 296 295 295 295
284 283 281 285 280 282 278 277 274 273 264 263 267 271 275 277 282 285 286 285 284 285 286 287 287 287 286 286 287 287 286 286 288 289 289 290 290 291 290 289 289 289 289 291 292 293 294 294 295 295 296 296 295 295 295 296 295 295 295 295 295 294 295 295 295 296 296 297 296 296 297 297 294 296 295 295 296 295 295 296 295 294 295 296 296 296 295 295 295 296 296 296 295 295 295 294 294
287 286 283 286 281 277 274 275 276 269 272 270 263 273 280 280 282 287 286 286 284 284 285 286 284 284 285 285 285 285 286 287 288 290 290 288 288 289 288 287 286 287 290 290 291 291 291 293 295 295 294 296 296 295 295 295 295 295 294 295 294 293 294 294 294 294 295 296 295 294 294 292 294 293 294 294 294 294 294 293 294 294 294 294 295 297 295 294 294 295 295 296 295 294 294 294 293
Wind_Speed
4 3 1 1 4 3 2 6 2 2 4 0 2 1 2 0 1 1 2 1 1 1 0 1 2 3 1 3 6 4 0 7 5 8 3 2 2 6 5 5 7 7 7 4 3 3 3 6 9 11 13 13 13 13 13 13 13 13 12 12 12 13 13 13 13 13 14 14 14 13 12 16 17 17 17 19 19 19 19 17 17 17 17 18 18 18 18 18 18 19 20 20 19 20 19 20 20
2 3 3 0 1 2 1 2 3 2 6 2 1 1 2 2 1 4 5 2 2 1 1 6 7 8 10 11 8 4 2 3 2 0 1 0 3 3 4 8 9 10 7 3 3 3 3 4 8 10 13 13 13 14 13 13 13 13 12 12 12 13 13 13 13 13 14 14 13 13 14 14 15 16 17 18 19 19 19 17 16 17 18 18 18 18 18 18 18 19 20 20 19 20 20 20 20
3 3 2 3 4 4 2 4 1 1 5 1 2 4 1 2 5 5 3 3 4 6 4 4 4 4 2 2 2 2 1 2 3 1 1 3 9 5 5 7 7 8 8 3 3 3 2 4 7 9 12 13 13 14 14 13 13 13 12 11 12 12 12 12 13 13 13 13 13 13 12 16 17 17 17 18 19 20 19 17 16 17 18 19 18 18 18 17 17 18 19 20 21 20 19 19 19
3 4 2 3 1 3 1 3 4 8 4 5 0 2 1 5 5 4 2 2 5 4 0 1 4 2 1 5 1 1 2 2 0 2 4 6 2 6 6 8 7 6 6 4 3 3 3 4 6 8 10 12 12 12 12 13 13 13 12 11 12 12 12 12 12 12 13 13 12 13 13 14 18 16 17 18 19 19 18 17 16 16 18 18 17 17 18 17 17 18 18 19 19 18 19 19 20
3 2 3 4 4 1 2 0 4 3 3 5 6 3 3 4 5 3 1 1 3 1 1 1 3 3 0 5 0 0 2 0 1 1 1 0 2 7 7 7 7 8 8 6 4 3 3 6 7 7 11 12 12 11 12 13 12 13 12 11 12 12 12 12 12 12 12 12 13 13 14 15 16 17 17 18 19 19 18 16 16 16 17 18 17 17 17 17 17 17 17 18 19 19 19 18 19
5 2 4 2 0 2 6 1 2 1 4 5 3 3 4 5 5 5 1 1 2 1 3 1 3 4 1 1 1 0 2 3 2 1 3 3 7 7 8 7 7 8 7 6 4 3 4 7 8 8 11 12 13 12 12 12 13 12 12 11 11 11 12 12 12 12 12 12 12 14 13 14 15 16 17 17 18 19 19 16 16 16 16 17 17 17 17 17 17 18 19 18 19 19 19 19 19
0 4 4 4 2 4 4 3 3 2 1 5 3 3 7 5 4 3 2 1 0 0 0 2 3 4 4 1 1 0 0 1 1 2 4 4 8 8 8 7 7 8 7 6 4 4 4 7 9 10 10 11 13 12 12 13 13 12 11 11 11 11 11 12 12 12 11 11 12 13 13 13 14 15 15 17 17 19 19 16 15 16 16 16 16 16 16 16 17 17 18 18 19 19 19 18 19
2 1 1 1 1 3 3 1 1 3 0 4 2 6 5 6 4 3 3 2 2 1 1 2 0 5 0 3 2 1 4 2 2 0 6 8 8 8 8 7 8 9 8 6 5 3 6 8 9 9 9 12 12 12 13 13 13 12 12 12 12 12 12 11 12 11 11 11 11 13 14 14 14 15 16 17 17 18 18 16 16 16 16 16 17 16 16 16 16 17 17 18 18 18 18 18 18
4 5 0 3 2 3 2 1 1 2 4 1 1 2 4 4 4 4 2 1 0 0 3 3 2 3 2 1 1 2 4 3 1 3 8 7 9 8 7 8 8 9 8 7 5 4 4 8 9 10 10 11 12 14 13 14 13 13 12 12 12 11 12 11 11 11 11 11 10 12 14 13 14 15 15 16 16 17 18 17 15 16 16 16 16 16 16 16 16 17 17 18 18 17 17 18 18
2 2 1 1 3 2 2 1 3 2 1 2 4 5 5 4 4 0 3 2 1 3 0 0 1 2 3 2 1 2 1 4 1 6 6 7 8 7 7 7 8 10 9 6 5 5 4 7 9 10 10 11 11 12 13 12 13 13 12 12 12 12 11 12 11 11 11 11 10 11 12 12 14 13 14 15 16 17 17 16 15 16 16 15 16 16 15 15 15 16 17 18 17 18 17 17 17
0 5 3 3 4 2 3 3 2 2 0 2 2 2 2 4 4 2 0 2 1 2 1 3 3 3 3 1 2 3 3 2 4 9 5 7 7 7 7 6 7 8 9 7 6 5 4 4 8 8 9 10 10 11 11 12 13 13 13 12 12 12 12 12 12 11 11 11 11 11 11 12 12 13 14 15 15 15 15 15 14 15 16 16 16 16 15 15 16 17 17 17 18 18 18 17 17
1 0 1 3 2 6 4 4 1 2 3 1 1 1 2 5 3 3 2 6 1 1 2 4 2 6 3 1 1 2 4 1 5 7 5 5 7 6 7 5 7 7 8 8 6 5 4 4 4 6 8 8 9 10 10 10 11 11 11 12 12 12 12 12 12 11 11 11 11 11 11 12 11 11 12 13 13 14 16 15 14 15 15 16 15 15 15 16 17 18 18 18 18 18 17 17 16
2 1 4 5 0 1 2 3 3 0 1 3 4 1 3 4 4 6 4 3 1 3 0 4 6 2 2 2 2 5 2 5 4 4 5 5 5 5 5 6 6 7 7 6 6 6 5 4 4 4 5 8 8 10 10 10 10 10 11 11 10 11 12 12 13 12 11 11 11 11 11 10 10 12 12 13 14 15 16 14 14 14 14 15 15 14 15 16 18 19 18 18 17 17 17 17 16
2 5 4 1 1 4 5 3 1 4 3 3 2 1 5 3 4 6 8 5 3 3 2 3 5 5 2 2 1 3 6 5 3 3 3 4 4 6 6 5 6 6 7 7 6 6 5 4 4 4 4 5 5 7 9 9 9 10 10 10 9 10 10 11 12 12 11 10 9 9 9 10 11 11 11 12 13 15 14 12 14 15 15 14 16 14 15 16 18 18 18 18 18 17 17 17 16
0 2 5 5 2 2 1 5 9 5 5 3 3 6 2 3 3 3 7 6 3 3 0 0 3 1 4 6 4 8 9 7 4 3 4 4 5 5 5 5 6 6 6 7 6 6 5 5 4 4 4 3 4 5 5 7 10 10 10 9 10 10 10 9 10 10 10 10 9 8 8 9 9 10 10 10 11 11 11 12 14 14 15 15 15 14 15 17 17 18 18 17 17 17 17 17 16
4 5 3 1 1 3 3 1 1 3 3 5 1 5 4 1 1 5 4 2 2 1 0 2 2 1 1 6 1 7 10 6 4 4 6 5 4 4 6 5 5 5 6 6 8 6 6 6 5 5 4 4 4 4 4 5 8 10 10 10 10 9 9 10 9 9 11 11 10 9 9 8 9 8 10 8 9 9 9 8 10 11 15 15 15 15 16 17 17 17 18 18 17 17 17 16 16
2 3 2 3 1 2 2 3 6 4 2 4 1 5 5 2 1 1 0 1 7 1 3 0 1 0 3 4 1 3 9 7 6 6 6 5 5 4 4 4 4 4 4 6 8 7 6 7 6 5 5 5 5 5 4 5 6 9 8 10 10 9 9 10 10 10 9 9 9 9 9 6 5 5 6 5 8 6 9 10 10 11 14 14 15 16 16 16 16 17 17 17 17 17 16 16 15
1 1 5 2 2 2 5 6 9 1 6 5 5 5 6 3 0 1 1 5 3 1 2 3 1 1 2 5 2 3 7 9 7 9 7 6 5 6 6 6 6 7 7 6 6 7 6 6 6 6 5 5 5 5 4 5 5 7 6 6 6 7 8 9 8 6 6 5 8 7 5 5 5 4 5 6 5 6 8 10 10 10 13 12 14 16 17 18 17 17 17 17 17 15 13 8 8
3 2 3 4 4 2 5 3 5 3 3 5 4 2 5 5 6 2 3 0 1 1 0 2 1 2 4 3 4 9 10 7 8 9 10 11 8 9 8 7 7 7 8 7 7 7 8 7 6 6 6 6 6 4 4 4 6 5 5 6 5 7 7 7 6 6 5 5 4 4 5 5 5 3 4 5 5 8 8 9 9 10 10 11 13 16 16 17 17 17 17 16 15 13 8 6 6
1 3 1 2 7 2 3 3 3 2 3 5 5 2 2 2 2 1 2 4 0 6 4 1 1 3 1 2 5 8 9 7 6 9 11 11 9 10 10 8 9 9 9 9 9 7 7 7 8 7 7 7 6 5 5 5 6 5 5 5 6 6 6 6 5 5 5 5 5 5 5 4 5 5 5 8 8 6 7 9 10 10 9 9 12 10 13 14 16 16 16 14 9 6 6 6 6
1 2 3 2 4 2 2 4 3 2 4 4 4 1 1 1 2 2 4 5 3 5 6 8 9 8 6 5 6 7 9 8 7 7 9 10 9 8 10 11 13 10 8 6 7 8 9 8 8 7 8 7 7 6 6 6 6 5 5 5 6 6 5 5 5 5 5 5 5 5 5 4 4 5 4 4 5 5 5 5 6 5 6 5 8 7 6 7 7 7 7 7 6 6 7 6 5
4 0 1 2 1 0 1 3 1 1 4 7 3 7 4 1 0 3 9 7 7 8 9 9 7 9 11 11 9 7 10 10 10 9 11 12 13 12 9 7 5 5 5 7 9 8 10 8 9 8 8 8 8 7 7 7 7 7 6 6 6 6 6 5 5 5 5 5 5 5 5 6 5 5 5 4 4 5 5 5 5 6 6 5 5 6 5 6 6 6 6 7 6 6 6 5 5
2 1 0 3 2 0 0 0 2 4 4 6 5 4 3 4 1 2 6 8 5 6 3 8 6 12 12 10 12 10 10 12 12 13 13 13 12 12 11 10 10 9 8 9 8 8 9 9 9 8 9 8 9 7 6 6 7 8 7 6 6 6 6 6 5 5 5 5 5 6 7 6 6 5 5 5 4 4 5 5 5 5 6 5 5 6 6 5 6 6 6 6 6 7 7 5 6
4 3 0 0 2 1 2 0 1 1 9 5 3 2 2 3 3 1 4 7 4 1 2 2 5 5 8 12 12 15 16 16 17 16 15 17 17 18 14 12 10 6 6 8 8 8 9 11 11 10 9 9 8 8 7 7 6 7 7 7 7 7 6 7 6 6 5 6 6 6 6 7 7 6 5 6 5 3 4 4 4 5 5 5 5 6 6 5 6 6 6 6 6 5 7 6 6
2 1 1 0 1 2 2 1 4 3 2 0 4 5 0 3 1 1 6 9 7 4 1 3 7 8 6 9 13 10 10 9 10 11 7 8 8 7 5 5 5 7 9 10 8 9 10 10 11 12 10 11 9 8 8 6 6 7 7 7 8 7 6 7 7 6 6 5 6 6 6 7 6 6 6 6 5 5 4 4 5 5 5 5 5 6 6 6 6 6 6 6 5 5 5 6 6
2 1 4 1 1 1 2 1 4 3 1 2 4 1 1 2 2 3 9 7 2 2 4 5 7 8 10 11 13 12 12 14 12 9 14 9 4 6 9 8 8 10 12 10 9 10 9 9 11 12 11 11 10 9 8 8 8 8 8 8 7 8 7 6 8 7 6 6 6 6 6 7 8 7 7 6 7 6 5 4 5 5 5 5 5 6 5 6 7 6 6 6 6 6 6 5 6
3 4 3 4 1 0 3 1 1 1 1 1 3 1 0 2 3 6 2 5 1 4 4 2 8 10 10 9 9 10 12 14 16 12 4 5 7 9 11 8 10 13 10 12 11 10 8 9 11 11 11 9 9 10 9 9 9 8 8 7 7 8 8 6 7 8 7 7 7 7 6 6 6 6 7 7 5 6 6 6 5 5 5 4 5 6 5 6 6 6 6 6 6 6 6 4 5
5 8 4 6 5 1 1 2 1 1 1 1 3 1 1 2 1 7 1 3 1 6 3 5 5 7 10 10 10 10 10 12 7 5 13 11 12 13 13 13 15 12 12 15 13 10 9 11 11 11 11 10 9 11 8 9 9 9 8 8 8 7 9 8 7 8 8 8 8 8 7 6 6 6 7 7 7 7 7 7 6 6 6 5 5 6 6 5 6 5 5 5 5 6 6 5 4
3 2 2 3 4 1 3 2 0 1 0 0 0 1 2 0 7 3 1 2 1 4 5 5 6 6 5 6 7 6 12 8 5 8 13 14 12 10 14 14 13 13 12 13 11 9 13 12 11 11 10 10 11 12 11 8 8 8 9 9 7 7 7 8 8 7 9 8 8 9 8 8 7 8 7 9 9 7 8 8 7 7 6 6 6 7 7 6 6 7 6 5 6 6 7 6 5
2 6 3 2 2 3 1 1 1 1 0 1 0 2 7 9 12 0 0 4 2 1 4 5 6 5 5 5 7 8 7 5 9 13 12 12 11 10 13 12 11 11 10 7 7 12 11 8 9 8 10 11 11 10 9 9 8 8 7 8 9 8 7 7 8 7 8 9 8 10 10 10 9 8 9 9 8 8 8 8 8 8 7 8 7 7 8 7 7 7 7 7 5 6 7 5 5
4 0 5 1 1 3 2 0 0 4 0 1 1 3 6 5 5 5 5 1 4 4 6 6 6 5 5 5 5 8 9 9 13 13 12 12 10 9 12 9 9 10 7 6 12 13 9 10 9 9 11 12 10 11 10 9 6 7 8 8 9 9 7 7 7 7 7 9 9 9 10 10 10 9 9 9 9 9 9 8 8 7 6 7 8 8 8 6 7 8 7 8 6 5 5 5 5
3 4 2 2 3 3 5 0 3 4 1 4 3 1 7 9 9 4 3 1 5 7 7 6 6 6 6 5 6 7 10 8 10 10 11 11 10 10 11 13 10 10 12 11 9 7 10 10 10 10 10 12 12 12 10 9 8 6 5 5 7 10 9 8 7 7 8 7 9 9 11 10 10 10 10 9 8 8 9 9 10 9 11 8 6 7 7 8 7 6 5 7 9 6 6 6 5
4 2 1 1 0 3 3 0 1 2 1 3 2 4 5 3 3 1 3 3 3 4 5 6 7 8 8 6 7 7 8 8 8 11 13 12 11 11 11 10 11 12 11 9 10 8 9 11 11 12 13 13 12 11 9 8 8 8 7 6 6 7 8 8 7 6 7 8 7 9 11 11 11 11 11 11 9 8 7 7 6 8 10 10 9 8 7 7 9 7 6 4 4 7 7 8 6
2 2 1 3 3 2 1 4 1 1 1 3 3 1 6 5 7 4 5 3 1 2 5 6 7 7 8 7 6 8 8 9 11 12 14 12 12 12 12 11 10 10 9 11 10 11 12 10 11 12 11 10 11 11 10 8 8 8 7 6 6 7 8 7 6 6 7 7 7 8 9 11 11 11 12 11 9 10 11 10 9 9 8 8 9 8 7 6 7 9 9 5 6 7 8 9 8
7 2 1 1 1 2 2 1 1 0 2 2 1 1 10 12 10 9 5 1 1 5 7 6 5 6 8 8 8 9 9 10 16 12 9 9 10 11 10 11 10 9 9 11 10 9 8 8 9 10 10 9 9 9 7 6 6 6 6 6 7 8 7 7 7 7 7 7 8 8 8 8 10 11 11 11 10 8 7 7 9 10 9 8 9 10 10 9 7 7 10 9 6 5 6 5 7
9 9 6 4 5 3 2 3 2 1 1 2 3 6 7 10 8 10 10 0 2 6 5 6 8 8 8 8 9 9 10 13 15 7 6 7 8 9 10 8 8 8 7 7 9 8 9 8 8 8 10 10 7 6 6 6 6 7 8 5 6 8 7 7 7 8 7 8 8 8 9 8 8 10 11 11 11 10 10 10 10 10 10 9 10 10 11 11 13 11 9 12 10 7 6 7 7
6 5 5 3 3 1 2 1 1 1 1 4 4 5 5 11 11 12 11 2 3 5 9 10 9 8 8 9 10 12 11 17 5 5 7 8 9 8 8 6 7 6 6 7 8 10 11 12 10 12 10 9 9 9 8 9 9 6 6 9 10 6 6 5 7 7 7 7 8 8 9 8 8 9 10 10 10 10 10 10 11 10 10 10 11 13 13 13 12 12 10 8 12 11 8 8 8
6 6 5 1 1 1 0 0 2 3 1 1 2 2 8 11 12 12 8 2 8 10 10 10 12 11 9 9 12 14 15 5 5 6 6 5 6 6 5 6 6 8 10 9 12 14 13 10 11 11 8 9 11 11 10 10 10 10 10 10 6 5 6 6 7 5 7 6 7 8 8 8 8 8 8 9 9 8 6 6 9 12 12 11 8 5 7 8 10 10 11 8 5 10 9 12 11
3 6 4 4 1 2 3 1 2 2 1 5 2 5 9 11 11 11 9 12 8 7 9 10 9 10 9 10 12 15 10 14 7 7 6 5 5 4 4 5 7 11 9 11 11 8 8 9 10 8 9 10 10 10 10 11 8 6 7 5 8 4 3 5 5 5 5 6 6 7 7 7 7 7 7 8 9 9 10 10 10 10 11 10 10 9 11 11 11 13 14 13 10 3 5 7 11
5 5 3 3 2 2 1 2 1 3 2 2 2 6 12 8 6 11 13 8 5 5 7 10 8 12 13 14 12 10 12 14 13 10 8 5 5 4 4 6 10 8 7 7 8 11 10 10 9 9 10 10 9 10 10 8 7 4 2 3 3 5 5 4 3 0 4 4 6 4 5 5 5 6 5 7 7 8 10 10 9 10 11 12 12 13 13 14 13 12 12 11 13 11 7 9 10
1 3 3 4 1 1 2 0 1 0 1 2 3 4 9 4 4 5 3 2 2 5 4 8 11 10 12 9 8 9 12 9 10 10 10 6 4 6 8 8 5 7 9 10 10 11 10 13 12 11 9 10 9 8 9 6 6 4 4 4 4 3 3 3 3 4 4 3 3 5 5 3 4 5 6 7 7 8 10 11 10 11 11 12 11 11 13 16 17 16 17 15 16 16 12 9 11
1 3 5 4 4 5 0 2 2 5 2 3 3 4 4 3 5 8 10 6 7 2 3 8 10 10 6 9 14 7 8 6 8 11 12 7 5 5 5 5 6 8 9 9 7 8 6 6 6 7 6 6 8 8 9 9 9 10 8 7 5 4 6 4 9 10 5 5 6 2 3 5 4 4 4 5 9 10 9 9 12 12 11 11 10 9 9 8 11 13 15 14 16 14 16 13 13
3 3 3 3 6 5 5 2 3 1 0 2 3 1 7 5 6 7 7 6 11 10 5 12 11 6 4 9 9 7 7 7 7 9 8 7 9 6 6 6 7 7 8 3 4 5 6 5 6 8 8 7 7 7 8 8 7 7 11 12 11 11 11 8 4 4 6 5 5 6 6 5 5 5 5 5 4 5 9 13 13 12 14 15 13 11 10 12 11 13 12 12 13 11 10 13 16
3 1 5 6 7 6 4 4 2 1 1 3 4 3 2 9 8 4 3 4 9 9 12 12 9 7 7 7 8 7 8 6 6 6 6 6 7 6 9 5 5 7 3 4 5 5 8 8 8 8 6 6 6 7 8 9 10 9 9 8 9 9 10 8 6 5 4 6 6 6 6 5 5 5 5 5 5 5 5 5 8 11 9 7 9 13 13 12 9 8 11 12 10 11 14 14 14
2 2 6 4 5 3 5 4 4 1 1 7 3 0 1 5 9 5 2 6 7 10 12 10 9 9 8 7 6 7 7 5 5 6 7 6 6 6 6 5 4 4 4 5 5 5 4 4 5 4 5 5 5 7 8 8 8 10 10 9 8 6 5 4 3 3 5 5 6 6 6 6 6 6 6 6 5 5 5 6 6 7 10 11 10 8 10 13 15 14 12 11 11 10 10 10 10
1 7 7 7 7 7 4 4 2 1 1 6 3 3 2 9 7 6 2 1 7 9 7 8 7 9 10 9 6 4 4 5 4 6 6 6 6 5 4 4 3 4 4 3 2 3 4 4 5 5 5 5 5 6 7 8 7 7 8 7 9 7 4 3 4 5 5 5 6 6 6 6 6 6 5 5 4 4 4 4 6 9 9 10 10 12 10 9 12 15 16 15 14 14 12 12 13
9 5 8 6 9 5 3 7 2 3 1 6 5 3 1 6 5 6 3 3 3 3 4 5 7 7 6 4 4 4 4 4 3 2 3 3 3 3 3 4 3 1 1 1 2 3 3 4 4 4 5 4 5 6 7 8 7 6 8 8 9 8 7 6 5 5 4 4 6 7 6 6 5 6 4 5 4 3 4 5 5 5 8 9 10 11 12 13 12 12 13 16 16 18 14 14 12
6 3 4 5 2 7 4 5 5 1 5 5 1 3 1 6 6 5 8 5 5 4 4 5 8 8 7 5 5 4 4 4 5 4 3 4 3 2 2 3 2 1 0 0 1 1 2 3 4 4 4 4 4 5 6 6 6 7 6 7 8 8 8 8 9 9 8 8 7 7 5 4 5 5 4 6 6 5 5 6 5 6 7 8 10 11 12 11 11 12 12 13 14 16 13 12 12
6 7 7 5 3 4 2 3 2 5 5 0 3 2 1 12 9 6 8 10 6 6 7 4 5 8 8 6 7 5 4 4 4 4 4 4 4 3 2 3 3 3 1 0 1 1 2 3 4 5 5 4 5 5 6 6 6 7 8 8 7 7 7 8 8 8 7 8 7 6 6 6 5 6 6 7 7 7 7 9 9 9 9 8 8 9 10 11 11 12 12 13 13 13 13 14 13
5 7 6 5 1 1 3 3 1 5 5 4 1 0 5 4 6 13 16 9 1 3 6 7 7 7 7 8 8 7 6 5 5 4 4 5 5 5 3 0 1 1 1 2 2 3 4 4 4 5 6 5 5 5 6 6 7 7 7 7 7 7 7 8 8 8 7 7 6 7 7 8 8 9 8 8 7 7 7 8 8 10 10 9 9 9 10 10 10 11 12 13 14 13 11 13 13
7 1 9 9 8 5 4 3 5 5 3 2 4 1 7 2 0 1 6 7 6 6 7 5 6 8 7 7 7 7 6 5 3 4 5 6 7 5 5 1 0 1 3 4 4 4 4 4 4 5 5 5 6 6 5 7 7 6 6 7 7 6 7 7 7 7 7 7 6 7 8 7 8 8 8 7 6 7 8 7 8 8 8 8 8 9 10 10 10 10 9 11 11 11 13 13 13
0 3 6 5 5 6 1 4 3 0 1 2 1 6 3 4 3 9 5 6 7 5 5 3 5 5 4 6 5 4 5 6 3 4 5 7 6 6 6 4 2 3 3 3 4 4 4 5 5 5 6 5 5 5 6 7 7 6 6 7 7 6 6 5 5 4 5 7 7 8 8 8 7 7 6 5 6 7 7 7 8 9 8 8 7 8 9 9 10 10 10 10 12 9 11 13 13
4 4 4 4 2 8 6 2 1 1 3 9 2 8 6 8 7 10 8 6 8 5 4 2 4 5 4 6 7 6 5 5 5 3 4 6 6 5 5 5 4 3 3 4 5 4 4 4 5 5 5 4 5 6 7 6 6 6 7 6 6 6 6 7 7 7 7 7 7 7 7 7 6 6 6 6 7 6 7 7 8 9 9 8 7 7 8 8 9 9 10 11 12 11 11 13 12
8 2 7 2 2 4 4 4 2 2 3 8 2 8 3 2 8 4 2 1 6 6 5 4 7 5 4 5 5 4 5 6 5 5 6 7 7 7 5 4 4 4 4 5 4 2 3 4 5 5 4 6 6 6 7 6 7 7 7 7 7 7 7 7 6 7 6 6 6 6 6 6 7 7 7 6 7 8 8 8 8 8 7 8 8 6 7 8 9 9 10 11 11 11 12 11 11
3 4 4 6 3 1 2 4 2 1 3 6 4 2 6 9 9 3 2 2 6 9 6 5 6 6 5 8 6 1 2 5 6 5 5 6 6 6 5 5 4 3 4 4 4 3 4 5 5 5 6 6 6 6 5 5 5 6 7 7 7 7 6 6 6 6 5 7 8 7 8 8 6 6 7 7 7 7 7 7 7 7 7 8 7 7 6 7 7 8 9 10 9 9 10 11 10
1 3 4 1 3 2 5 6 4 5 4 2 9 3 10 4 7 9 6 6 6 7 6 5 7 5 5 7 7 8 7 6 5 5 5 5 5 5 5 5 6 5 5 5 5 4 5 5 4 5 4 4 4 6 6 7 7 7 7 5 5 6 6 7 7 7 8 8 8 8 8 7 8 7 7 7 7 7 7 7 6 7 7 7 8 7 6 6 7 8 8 8 8 9 10 11 11
2 2 3 0 1 2 4 1 3 4 5 5 3 8 7 5 6 10 10 8 8 7 6 7 5 5 6 6 7 7 6 5 4 4 4 4 5 6 6 5 4 4 4 5 7 7 6 4 5 5 6 7 7 6 6 7 5 7 6 8 7 7 7 7 7 7 9 8 7 8 8 8 5 8 7 8 8 8 7 8 7 7 8 8 8 8 6 6 6 7 8 8 8 9 11 10 9
13 13 11 12 9 4 4 7 3 1 3 5 3 11 7 5 2 8 7 8 6 8 4 3 3 4 4 5 4 4 3 3 3 3 2 3 3 4 5 6 4 4 6 7 9 5 4 5 6 5 6 8 7 7 7 7 7 7 8 7 7 6 7 6 7 8 9 8 7 7 7 5 8 7 7 8 8 7 7 7 7 7 7 7 8 9 7 6 8 8 9 8 8 9 10 10 9
Wind_Direction
296 15 14 118 62 94 55 2 123 319 60 12 96 78 190 51 214 91 149 352 86 263 238 34 49 56 200 199 166 146 182 135 196 135 213 234 283 141 131 127 128 131 138 145 148 141 144 142 124 125 124 119 119 117 113 110 106 107 106 104 100 94 93 94 92 88 86 88 92 91 87 81 88 96 99 96 94 92 89 85 88 92 92 88 87 85 85 82 82 84 85 86 86 84 84 80 79
325 47 60 14 45 50 232 123 99 1 40 60 242 97 242 296 89 179 176 188 195 126 124 100 88 84 66 86 111 123 50 4 185 177 255 280 112 104 139 135 140 141 147 138 143 136 137 130 129 133 128 125 124 122 119 115 111 109 106 101 98 97 95 95 94 90 87 88 90 90 93 92 87 91 90 91 93 91 88 88 91 94 95 92 86 86 84 82 82 86 89 88 86 84 84 85 84
37 50 45 29 34 71 84 33 261 54 105 136 262 207 334 129 170 210 221 189 157 149 164 105 102 66 36 48 32 21 210 335 115 227 87 153 134 186 152 139 141 139 150 133 137 133 129 131 139 137 131 129 127 126 122 115 114 110 106 103 100 99 97 95 95 94 94 92 96 98 92 91 92 93 98 98 93 91 90 90 91 95 94 89 87 85 83 82 83 86 88 88 85 84 81 80 81
82 38 141 75 236 30 61 31 88 128 126 201 285 266 189 175 215 205 234 232 167 135 231 19 52 270 91 50 135 89 45 98 237 160 136 172 216 149 151 142 134 138 148 141 141 144 136 150 148 140 136 131 127 123 120 118 118 116 112 107 103 100 98 96 96 96 97 99 92 87 92 97 94 97 95 96 97 93 92 96 100 102 97 92 92 87 85 86 87 88 88 89 87 84 82 80 79
62 355 83 94 104 351 104 122 144 99 156 197 172 267 252 206 181 191 222 254 240 269 339 148 72 339 170 125 126 120 225 262 74 158 135 254 139 148 141 137 139 148 155 155 148 148 163 161 148 144 138 133 130 128 126 125 122 116 113 109 105 101 100 99 99 98 100 103 102 98 87 84 101 101 96 95 95 96 94 97 101 103 101 98 91 87 88 88 89 92 93 92 90 85 82 82 81
61 49 3 87 345 152 56 73 69 149 220 151 122 229 220 201 172 180 177 257 258 268 207 71 160 186 19 327 173 110 198 110 198 242 160 223 146 148 143 141 141 154 157 153 157 155 166 166 146 149 142 139 136 137 134 129 123 117 116 113 108 105 104 104 104 102 101 101 103 100 100 98 93 93 95 95 98 98 98 98 102 103 102 99 94 89 90 92 92 93 95 93 92 90 88 87 86
279 47 358 27 37 47 187 130 158 171 230 161 186 189 186 199 210 129 148 92 244 67 241 182 135 87 67 305 17 231 191 187 97 210 158 157 137 144 145 146 144 155 157 158 154 161 169 165 156 150 146 144 141 140 139 132 128 125 123 120 115 111 108 108 107 108 104 101 98 100 102 104 100 96 97 98 100 102 100 100 102 103 103 99 92 91 94 95 94 93 91 90 89 90 89 88 86
61 119 306 108 239 49 53 194 169 167 337 180 231 155 189 190 155 150 169 106 198 143 12 158 152 101 227 30 164 265 348 165 219 238 123 133 140 145 149 146 151 157 159 158 159 164 172 170 164 152 152 149 147 148 143 139 136 133 130 126 121 118 115 111 110 110 109 104 106 107 106 107 106 103 101 101 103 99 98 102 107 106 105 102 97 94 94 95 94 92 93 93 93 93 91 90 89
1 87 335 70 51 22 68 63 297 226 290 254 256 308 162 167 146 138 158 245 22 80 132 190 239 88 236 70 155 279 301 296 281 148 127 134 146 152 152 154 155 158 159 160 161 165 171 176 165 160 156 154 153 151 149 144 141 138 136 130 126 123 121 117 115 115 115 111 108 110 108 107 108 108 105 104 102 99 102 104 108 110 107 104 102 97 94 95 96 96 97 97 96 95 95 94 90
35 63 275 127 129 55 28 315 88 192 239 236 175 175 162 171 164 115 152 105 186 124 220 260 129 95 145 132 336 331 330 337 100 109 135 146 148 150 154 160 159 157 159 161 163 166 170 175 163 163 158 155 157 154 152 147 145 142 139 134 130 129 125 124 121 120 120 117 112 110 114 117 112 112 109 105 102 100 103 109 113 115 112 108 106 97 95 96 100 101 100 97 95 93 92 93 90
23 14 126 77 36 109 154 224 274 322 287 327 280 250 209 124 122 134 267 164 26 151 202 227 33 119 93 250 210 249 291 293 152 156 157 152 148 153 154 158 160 158 160 162 163 163 167 166 166 163 158 160 156 153 152 150 146 145 142 138 135 133 132 129 126 123 123 121 117 113 117 122 121 120 114 112 110 107 110 116 115 114 114 112 106 98 95 97 101 104 103 101 98 97 96 90 82
15 46 4 106 166 153 221 156 246 269 295 332 219 148 195 141 102 120 148 125 225 130 170 142 204 147 65 8 292 299 327 200 196 155 149 144 154 155 150 150 157 164 161 161 160 163 159 159 160 163 161 160 155 152 152 152 149 147 146 142 141 139 137 135 131 128 127 126 121 116 113 116 120 118 122 116 110 112 114 116 119 118 117 111 107 104 101 102 103 103 103 99 94 90 85 82 81
109 103 90 81 200 119 170 107 217 275 334 263 178 202 130 119 183 180 167 112 127 129 281 222 131 91 121 179 257 304 278 225 216 155 144 141 152 149 140 146 161 157 159 160 163 161 160 161 156 160 163 158 152 150 155 153 153 149 147 145 145 143 140 139 136 134 131 129 126 124 117 109 109 113 111 116 117 119 119 119 119 118 115 116 113 107 108 104 102 99 96 93 90 86 84 80 77
116 180 123 134 46 120 135 170 334 149 256 238 263 140 160 146 245 169 131 128 198 152 259 174 140 135 104 22 298 249 230 211 204 142 118 126 130 141 146 149 151 159 161 165 168 163 158 137 118 143 156 155 153 153 156 157 154 151 149 147 146 143 142 141 139 137 135 128 118 111 112 114 116 116 115 119 124 122 118 122 123 123 122 121 112 109 107 104 97 96 96 93 90 86 83 80 76
185 133 83 118 49 86 226 122 200 165 222 182 193 140 162 280 121 158 163 143 232 209 348 76 176 122 234 150 272 208 204 203 169 126 115 104 124 144 145 148 153 159 164 171 169 167 150 158 140 155 155 149 152 153 154 160 156 152 150 151 146 145 142 139 140 134 129 123 118 114 108 109 109 107 107 105 106 113 122 127 129 128 128 123 116 113 114 106 102 100 97 94 89 86 83 80 77
139 83 78 99 115 137 226 144 59 113 219 170 191 130 108 342 212 139 254 145 154 3 355 192 19 188 171 166 223 207 189 162 146 120 113 103 106 136 145 150 156 167 172 170 176 181 163 149 160 153 159 158 139 151 154 159 161 155 153 150 148 146 142 138 131 130 128 126 117 107 104 103 102 101 101 99 100 106 110 117 124 121 125 125 121 119 115 111 105 103 100 97 89 84 81 77 74
82 79 61 38 140 161 231 151 146 207 241 226 279 145 154 209 211 250 6 75 127 179 38 276 188 351 190 219 278 235 162 118 124 120 114 121 130 144 144 149 145 149 148 186 179 185 162 171 172 151 162 162 160 149 155 159 164 156 152 150 148 146 140 134 130 123 122 120 117 112 103 99 103 105 97 93 88 99 107 111 116 122 126 125 121 118 111 108 107 106 98 89 84 78 72 67 65
54 78 111 95 195 137 200 171 187 220 141 204 178 195 120 156 177 197 62 34 64 24 70 312 325 352 256 270 287 156 127 133 146 143 154 146 155 157 167 169 164 184 178 179 192 186 164 167 171 167 153 167 165 156 157 160 161 160 154 152 149 143 133 129 128 131 127 122 120 115 112 109 103 103 107 104 101 104 109 115 121 122 125 116 121 112 108 111 107 100 95 92 88 81 72 68 59
97 116 90 204 191 230 144 201 194 140 222 176 176 148 161 195 139 227 103 272 55 110 309 16 330 320 1 26 107 128 135 143 158 165 167 170 172 172 175 173 172 175 192 186 184 188 184 171 170 179 172 170 158 142 158 140 161 160 159 155 147 141 140 138 138 135 135 136 128 116 114 116 113 103 109 117 115 111 114 117 119 119 119 120 115 109 107 104 101 98 94 90 86 80 73 72 69
207 120 149 252 203 226 213 180 201 205 126 147 156 205 161 185 141 185 167 166 79 181 192 323 264 256 328 87 123 134 144 158 170 172 179 183 185 182 179 182 180 193 189 189 182 191 190 190 181 185 180 175 166 158 153 170 162 162 163 163 152 147 147 146 146 145 144 142 135 125 118 116 113 110 104 111 112 111 116 114 115 121 101 77 95 99 98 97 94 90 89 85 77 72 78 72 75
221 77 161 223 189 115 224 180 240 240 177 153 138 66 141 247 200 140 153 112 268 265 232 176 199 205 192 174 151 150 156 167 182 186 187 191 195 193 196 194 191 191 189 172 183 190 193 192 186 189 186 182 178 171 174 179 162 150 168 167 159 151 153 151 153 150 150 144 137 134 128 121 115 114 116 109 112 118 118 121 123 99 83 92 87 88 88 83 79 85 80 75 73 79 79 67 71
88 188 203 186 128 32 220 192 122 116 151 109 123 132 208 83 48 114 152 158 214 211 225 220 201 165 157 169 177 162 169 177 189 192 196 195 194 196 198 202 203 190 167 185 190 189 192 192 191 191 189 188 186 178 176 174 176 161 161 169 148 152 157 155 157 156 152 148 143 139 129 124 123 123 124 122 121 128 129 133 125 106 104 102 101 100 96 98 92 93 92 86 79 71 71 69 63
167 314 255 203 198 135 315 21 308 139 117 132 141 200 98 134 201 193 180 190 233 226 232 206 188 178 172 153 152 168 177 186 192 199 197 198 203 204 201 197 194 194 189 200 188 191 190 192 192 190 193 189 190 181 179 167 180 180 174 172 161 164 161 159 167 164 161 154 150 149 143 143 138 139 135 135 138 136 137 137 127 116 118 115 117 114 106 100 103 101 97 99 104 102 89 80 76
105 183 183 45 198 198 14 3 265 128 129 183 188 101 134 148 188 123 203 243 224 281 275 228 154 123 138 150 178 177 185 187 197 201 199 201 197 200 198 196 202 197 198 202 195 192 191 194 190 190 193 191 190 183 180 178 182 180 179 168 177 175 165 171 171 171 160 162 160 161 154 153 152 149 150 146 148 139 145 138 123 117 117 120 122 119 116 108 105 103 106 102 101 95 104 96 87
97 123 201 211 65 317 338 58 51 88 75 316 119 132 244 173 155 79 246 246 252 273 31 122 135 141 156 166 177 189 194 205 211 212 218 226 219 218 218 220 214 204 210 206 200 197 196 193 189 193 192 192 189 185 186 180 185 187 182 176 183 175 178 174 168 162 169 166 167 165 159 155 157 152 155 156 146 150 144 142 134 126 124 130 130 125 126 123 115 117 114 111 103 97 93 94 93
164 168 123 80 64 339 334 22 34 41 91 71 97 171 321 234 217 239 236 248 246 111 73 122 135 149 173 185 186 184 194 202 207 207 213 209 208 203 217 212 211 216 212 207 204 206 197 191 192 195 194 193 188 185 191 183 189 190 189 184 185 175 187 173 162 172 174 169 172 175 174 165 166 162 157 154 154 155 153 148 139 137 133 141 135 132 136 126 128 122 117 116 113 110 101 96 99
143 83 95 98 295 345 359 143 354 329 99 320 141 262 305 311 122 282 306 255 102 97 106 146 152 176 188 189 192 200 195 205 204 206 200 212 216 211 219 213 215 219 209 215 213 208 196 195 202 197 197 194 188 190 193 190 188 192 189 187 185 183 187 176 168 172 174 181 177 174 176 174 162 159 156 157 156 154 157 157 151 137 133 144 136 126 129 128 125 125 131 127 119 111 103 99 100
93 133 97 25 349 76 18 70 4 1 27 69 132 154 299 302 93 227 235 326 196 143 150 168 194 189 193 198 197 203 209 218 207 169 209 203 212 210 210 208 215 211 208 216 213 205 204 206 202 202 199 196 199 193 196 194 191 191 186 187 192 186 183 188 180 172 180 185 177 177 177 174 167 163 161 161 161 162 165 167 159 153 154 151 143 136 129 123 120 113 105 106 111 109 103 88 83
142 124 111 312 1 52 357 128 335 6 177 111 147 77 301 322 234 236 257 348 79 165 174 199 211 219 218 211 211 208 217 214 195 212 219 217 217 211 216 215 211 207 218 216 209 201 212 211 208 206 200 198 204 202 198 208 191 186 187 189 191 188 190 187 190 183 179 185 180 180 182 178 175 170 173 171 169 171 170 169 167 166 160 154 149 141 130 125 118 115 105 106 105 105 103 96 89
121 41 123 29 10 346 320 312 357 98 228 76 336 236 268 249 241 165 230 48 67 110 231 228 229 230 229 217 216 228 236 221 215 220 223 222 221 216 222 222 215 215 217 214 201 212 209 209 212 212 209 206 206 205 199 201 208 190 190 188 181 189 198 195 193 189 179 183 185 186 186 184 182 178 174 179 174 171 173 178 174 167 164 157 147 146 142 141 135 131 133 124 120 120 119 118 113
136 230 56 100 78 249 308 46 312 142 30 33 105 193 288 271 279 270 289 184 161 210 235 236 241 249 244 226 228 232 238 221 223 224 228 228 227 224 227 231 217 218 217 210 209 213 199 208 201 213 209 213 209 211 204 200 197 195 187 192 187 184 199 205 195 191 188 181 186 190 192 187 187 182 181 178 181 175 173 177 176 172 160 161 157 159 148 144 141 143 146 133 127 118 115 108 100
29 77 280 328 156 274 297 321 153 157 341 44 91 313 245 270 281 295 320 139 177 213 230 243 250 250 248 244 235 238 239 231 242 243 237 236 230 230 223 227 213 213 214 214 215 198 205 206 202 211 206 212 211 212 212 208 204 202 189 196 197 184 193 204 202 195 192 189 184 189 193 191 190 187 182 182 184 182 179 181 182 168 162 159 157 150 147 147 144 138 142 142 136 131 123 109 104
1 86 238 229 45 257 350 83 3 49 122 10 152 227 317 322 277 278 26 98 152 207 256 260 255 254 252 242 239 243 258 255 245 240 237 229 230 227 227 227 216 215 213 209 207 198 205 203 202 207 209 208 209 209 211 209 203 205 201 196 199 195 195 199 200 198 195 194 192 192 189 191 193 191 186 182 184 183 183 181 178 175 163 160 158 157 155 152 145 143 141 130 128 137 130 118 108
254 36 148 213 166 229 253 305 24 30 80 220 11 244 237 260 287 292 325 70 104 216 252 255 253 252 251 253 247 246 244 252 248 237 235 224 228 221 224 222 217 215 214 210 207 200 204 197 200 206 210 207 205 204 204 203 204 200 203 201 202 207 205 199 199 199 200 198 197 199 190 190 195 195 187 186 192 189 181 177 171 168 170 160 154 153 153 150 148 147 141 136 137 137 138 139 130
194 188 108 266 287 214 216 136 220 39 21 194 355 288 279 272 281 293 276 339 318 266 246 254 255 254 261 259 255 248 246 246 248 239 233 230 230 228 223 221 216 208 210 207 203 205 198 198 199 206 207 204 205 200 197 196 193 203 202 199 207 213 209 205 198 205 204 200 204 202 198 190 188 196 194 186 186 182 181 167 163 167 171 173 166 160 154 155 153 156 149 137 127 119 134 128 128
185 173 169 144 141 206 212 245 278 164 136 234 221 226 261 283 294 287 296 42 229 261 286 278 264 254 255 252 254 252 245 248 248 254 247 235 226 224 223 220 218 212 209 200 203 200 201 198 198 203 206 201 196 192 178 184 186 196 204 219 228 218 209 202 203 205 200 208 206 205 204 203 188 193 196 191 190 186 182 176 175 175 177 176 174 167 165 166 163 158 157 145 134 111 95 114 119
108 85 100 163 168 276 278 290 285 345 106 243 236 262 274 279 273 277 278 334 300 288 278 267 262 259 252 253 253 253 249 246 248 213 229 230 230 223 218 203 212 209 208 200 200 204 201 199 188 203 199 189 185 187 188 187 193 198 210 208 215 207 209 206 205 207 207 207 205 208 209 207 201 195 197 201 202 192 186 175 172 179 183 184 185 184 176 169 161 152 144 145 144 136 135 144 144
134 124 115 130 169 121 218 121 352 323 138 291 30 318 267 259 272 269 279 310 262 247 253 259 258 252 254 251 258 257 250 279 280 274 256 259 251 239 213 200 186 193 216 198 201 205 203 198 197 202 181 189 193 192 190 193 196 198 195 206 197 189 204 207 217 215 212 208 208 212 213 212 209 202 196 193 192 183 186 181 180 177 181 190 185 160 147 146 148 145 144 136 162 155 157 167 160
46 135 160 103 254 237 293 278 341 327 72 267 2 346 282 269 265 268 256 248 237 226 223 240 242 259 254 250 250 260 280 275 268 247 255 254 261 257 212 209 208 211 209 202 210 200 199 200 206 196 190 190 197 192 185 197 196 196 194 195 180 187 216 211 214 215 204 209 214 215 217 216 214 213 201 197 193 193 189 182 188 184 183 169 161 165 162 162 167 163 162 157 154 147 144 173 171
104 99 97 198 244 109 276 286 352 3 67 306 327 317 286 278 272 262 259 249 264 242 234 245 232 242 245 242 240 251 258 262 273 277 271 240 235 246 225 216 216 210 210 204 200 200 199 203 201 196 194 194 193 194 194 194 179 155 121 126 148 149 179 169 146 85 206 214 225 218 230 223 217 215 207 204 202 190 186 189 183 182 182 183 182 176 176 175 168 167 167 163 154 149 168 185 198
8 116 125 122 164 209 146 203 327 349 42 62 355 304 295 332 338 330 311 325 300 279 279 272 264 244 251 275 285 238 249 257 272 284 280 267 255 243 219 222 206 208 213 208 199 199 198 200 200 195 190 192 193 187 185 160 129 115 98 69 77 76 46 108 173 229 208 224 227 210 221 210 224 225 214 206 205 197 190 185 182 184 187 191 189 187 186 184 179 173 172 167 173 164 168 179 198
343 230 165 191 171 136 264 9 85 20 344 348 46 352 309 298 297 249 278 335 312 257 329 267 250 253 255 257 253 260 254 245 243 255 261 277 251 262 251 231 215 221 220 216 203 206 198 201 191 189 187 186 189 185 176 164 171 168 162 161 170 185 203 181 206 213 193 208 209 171 185 203 211 219 226 231 204 192 195 194 184 182 190 190 194 193 191 180 183 179 182 178 181 180 166 168 187
108 245 169 150 140 120 121 78 73 1 135 342 25 142 273 305 274 280 293 327 297 306 282 270 273 268 243 246 258 260 246 254 243 251 267 279 268 263 267 234 222 223 231 191 197 201 198 190 189 189 189 189 183 176 171 168 174 181 187 192 195 197 205 218 196 171 185 202 181 193 202 198 204 209 219 210 242 224 204 188 188 194 191 188 185 182 185 192 194 191 181 184 188 174 164 178 185
197 244 118 107 102 125 153 107 115 198 258 300 38 101 222 304 287 243 331 317 298 302 287 279 290 293 265 257 261 260 254 249 258 264 269 259 267 242 251 249 224 230 208 180 194 191 193 194 185 190 188 181 179 170 174 181 182 186 192 203 205 207 208 211 186 191 177 174 191 206 203 211 204 210 215 216 214 216 198 220 195 181 192 205 195 189 185 185 191 204 198 194 181 184 183 184 186
220 189 127 124 135 146 115 92 106 95 46 280 331 279 265 254 265 312 348 312 294 277 270 286 291 290 289 284 263 260 263 253 241 255 265 272 268 255 250 260 243 221 198 196 198 196 192 180 181 174 180 172 175 174 179 190 191 188 193 195 209 218 209 207 159 162 170 175 195 209 211 217 218 214 213 216 216 215 215 192 193 204 189 186 192 210 199 183 183 185 188 193 194 195 197 201 184
241 131 88 90 79 67 85 98 77 352 36 270 238 192 205 276 281 332 338 251 270 265 280 277 284 293 295 299 303 288 281 274 258 243 261 272 263 259 248 251 242 219 215 195 178 158 167 159 169 172 186 176 176 180 184 191 194 185 194 201 208 211 194 176 161 187 191 178 207 210 215 220 224 227 226 228 228 228 228 227 201 195 200 197 190 195 196 204 195 188 189 191 194 195 198 198 200
132 103 79 34 38 24 24 58 81 55 319 253 250 295 163 289 273 228 157 212 208 277 302 292 306 325 320 293 278 305 325 331 327 313 279 270 277 269 286 242 240 269 241 159 162 159 157 160 163 177 191 175 175 185 185 194 195 191 200 199 205 206 200 192 192 210 193 197 217 219 214 222 221 235 244 251 243 237 241 238 237 223 203 196 196 201 199 193 197 202 197 193 196 199 200 198 202
121 94 120 66 356 13 33 347 35 150 269 264 250 227 131 197 289 283 239 272 228 207 263 284 317 316 315 321 336 332 327 324 320 334 326 327 340 356 3 282 297 348 38 53 117 110 141 151 151 178 188 185 187 189 190 199 195 204 208 203 208 210 196 197 205 210 201 209 211 218 213 208 222 228 230 243 247 242 242 243 242 241 227 210 206 203 201 197 195 196 200 203 206 206 203 197 196
81 87 63 111 246 38 283 15 253 218 208 244 331 200 324 240 228 265 287 270 262 215 220 223 287 305 307 321 339 324 314 322 322 317 319 320 312 299 297 309 353 2 350 321 223 159 147 154 169 183 209 194 193 189 195 198 198 205 204 208 213 204 203 204 208 214 203 210 206 215 197 213 203 211 214 218 227 226 238 243 238 234 233 225 215 206 210 200 194 197 200 200 205 204 203 197 197
101 131 132 100 119 92 248 276 244 305 288 269 301 228 260 257 274 237 243 250 175 222 228 238 259 264 283 296 310 317 312 299 287 290 284 273 273 273 252 6 22 348 265 238 207 175 177 181 186 194 214 190 192 192 198 200 210 209 207 210 210 199 209 204 210 211 207 206 199 208 206 207 209 212 207 214 206 209 218 235 241 241 241 238 223 212 205 203 200 201 198 198 200 205 204 207 209
207 98 145 175 145 157 208 195 213 220 206 279 281 62 232 107 242 269 234 261 286 274 257 252 262 265 261 273 277 283 291 292 285 290 284 282 288 288 293 108 118 232 241 233 214 198 180 196 191 202 215 204 192 201 195 208 214 211 212 215 213 205 210 207 213 207 199 199 201 207 212 210 212 214 210 209 197 205 214 220 232 241 237 230 217 210 207 200 199 198 200 204 205 202 206 205 213
26 152 80 89 226 141 148 210 148 229 341 348 228 215 193 170 275 288 249 286 290 287 286 314 293 295 319 308 280 273 289 283 287 291 292 285 276 291 293 300 266 245 238 238 226 204 191 210 202 210 212 206 199 199 209 209 213 211 212 213 218 214 216 215 216 204 206 198 204 205 215 211 215 211 211 198 206 202 214 220 227 236 239 235 223 215 207 202 198 196 200 202 207 203 205 207 213
228 103 205 207 131 99 92 70 19 93 43 256 144 300 291 298 312 270 297 309 291 327 310 322 299 298 333 290 289 294 285 291 282 260 269 276 287 272 265 270 263 260 264 242 227 208 209 210 210 219 221 207 201 209 213 208 212 209 219 218 218 217 215 214 214 212 209 206 205 211 214 216 210 206 209 202 207 206 211 220 231 235 235 237 234 221 213 209 200 201 204 204 208 202 204 210 210
96 179 232 180 151 116 129 213 355 68 196 266 86 240 299 29 285 322 350 272 280 293 283 298 293 292 286 265 269 291 285 280 290 299 281 274 277 281 281 265 259 256 251 257 253 240 232 228 219 220 215 213 215 208 212 208 208 212 218 219 220 218 217 222 219 219 212 209 215 215 216 218 213 207 203 205 205 210 211 212 227 235 236 237 237 232 222 213 204 205 207 209 211 204 206 208 210
143 197 192 114 233 220 311 88 256 145 273 273 299 270 251 196 244 335 353 201 235 247 268 316 296 302 310 318 321 168 286 310 313 306 300 296 290 291 299 299 294 272 265 265 277 253 242 240 230 219 226 223 218 211 212 219 211 216 215 216 215 218 220 222 223 222 213 216 218 213 214 218 213 205 209 206 210 217 215 215 213 225 231 238 239 237 225 220 210 214 211 213 207 203 205 210 210
50 87 85 102 98 163 129 197 175 125 242 49 289 32 263 181 213 196 224 215 219 231 247 259 253 273 298 296 300 312 322 315 304 305 306 299 294 293 296 298 302 299 285 280 267 255 242 239 237 238 243 230 217 208 205 217 215 215 223 217 221 215 217 219 220 216 218 221 219 214 216 217 214 207 209 208 212 213 210 215 215 218 225 231 233 234 228 225 215 216 210 212 210 202 208 211 211
123 115 195 166 25 227 108 39 133 176 175 182 259 305 268 261 206 178 200 208 215 185 197 223 258 276 272 273 286 290 280 279 291 293 299 306 310 315 318 306 285 291 289 267 242 230 230 229 236 230 229 234 228 218 207 220 206 223 221 223 218 212 220 217 224 220 225 226 221 216 217 216 209 216 202 211 213 212 210 210 214 216 222 226 229 233 225 223 221 221 218 214 208 204 209 214 210
174 170 192 176 132 138 154 255 31 94 124 231 145 259 263 259 178 197 185 214 202 215 178 216 241 273 282 266 257 229 269 273 262 289 273 269 272 282 288 300 290 262 257 250 242 231 235 228 231 228 229 237 228 222 214 214 211 215 218 222 222 220 218 218 225 226 229 228 220 215 213 210 217 218 200 211 212 210 210 206 209 217 220 224 228 231 225 220 223 224 222 213 211 207 211 215 209